KI4BIY Weather Reports


time (UTC)temp
C
wind
direction
speed
KPH
gust
KPH
rain 1hr
cm
rain 24hr
cm
rain mn
cm
humidity
%
barometer
mb
20260510203535 27 232 0.0 0.0 0.00 0.00 0.00 51 1014.5
20260510203032 27 232 0.0 0.0 0.00 0.00 0.00 46 1014.7
20260510202531 28 231 0.0 0.0 0.00 0.00 0.00 48 1014.5
20260510202028 28 214 1.6 1.6 0.00 0.00 0.00 46 1014.6
20260510201525 28 237 0.0 0.0 0.00 0.00 0.00 44 1014.8
20260510201022 27 213 0.0 1.6 0.00 0.00 0.00 48 1014.8
20260510200517 28 54 0.0 0.0 0.00 0.00 0.00 43 1014.8
20260510200015 28 94 1.6 1.6 0.00 0.00 0.00 47 1014.9
20260510195513 28 53 0.0 0.0 0.00 0.00 0.00 46 1014.7
20260510195008 28 84 1.6 1.6 0.00 0.00 0.00 47 1014.8
20260510194504 28 76 1.6 3.2 0.00 0.00 0.00 47 1015.0
20260510194000 28 189 0.0 0.0 0.00 0.00 0.00 47 1014.9
20260510193455 28 78 3.2 4.8 0.00 0.00 0.00 46 1014.9
20260510192951 28 64 4.8 4.8 0.00 0.00 0.00 44 1015.0
20260510192446 28 246 0.0 0.0 0.00 0.00 0.00 49 1014.9
20260510191942 27 31 0.0 0.0 0.00 0.00 0.00 55 1015.0
20260510191438 28 60 0.0 0.0 0.00 0.00 0.00 53 1015.1
20260510190936 28 313 0.0 0.0 0.00 0.00 0.00 51 1015.1
20260510190433 28 313 0.0 0.0 0.00 0.00 0.00 50 1015.2
20260510185929 30 314 0.0 0.0 0.00 0.00 0.00 50 1015.4
20260510185427 30 312 0.0 0.0 0.00 0.00 0.00 48 1015.3
20260510184924 30 251 0.0 0.0 0.00 0.00 0.00 45 1015.2
20260510184421 30 258 0.0 0.0 0.00 0.00 0.00 49 1015.0
20260510183920 30 251 1.6 3.2 0.00 0.00 0.00 46 1015.2
20260510183417 30 257 0.0 1.6 0.00 0.00 0.00 48 1015.4
20260510182912 30 277 0.0 0.0 0.00 0.00 0.00 50 1015.1
20260510182409 29 265 0.0 0.0 0.00 0.00 0.00 50 1015.0
20260510181905 29 236 0.0 0.0 0.00 0.00 0.00 52 1015.3
20260510181402 29 217 1.6 1.6 0.00 0.00 0.00 54 1015.1
20260510180858 29 251 0.0 1.6 0.00 0.00 0.00 50 1015.2
20260510180356 28 229 1.6 1.6 0.00 0.00 0.00 50 1015.3
20260510175853 28 85 3.2 3.2 0.00 0.00 0.00 49 1015.1
20260510175348 28 206 3.2 3.2 0.00 0.00 0.00 49 1015.3
20260510174844 29 189 1.6 1.6 0.00 0.00 0.00 51 1015.4
20260510174343 30 267 0.0 0.0 0.00 0.00 0.00 43 1015.4
20260510173838 29 266 0.0 0.0 0.00 0.00 0.00 48 1015.1
20260510173334 29 36 0.0 0.0 0.00 0.00 0.00 48 1015.4
20260510172831 28 38 0.0 1.6 0.00 0.00 0.00 45 1015.4
20260510172327 28 208 0.0 0.0 0.00 0.00 0.00 56 1015.5
20260510171823 27 347 0.0 1.6 0.00 0.00 0.00 62 1015.5
20260510171321 28 347 1.6 1.6 0.00 0.00 0.00 59 1015.4
20260510170818 28 51 0.0 0.0 0.00 0.00 0.00 59 1015.6
20260510170314 27 256 0.0 0.0 0.00 0.00 0.00 55 1015.9
20260510165809 28 256 0.0 0.0 0.00 0.00 0.00 57 1015.8
20260510165307 29 246 1.6 3.2 0.00 0.00 0.00 59 1015.5
20260510164803 29 235 0.0 1.6 0.00 0.00 0.00 59 1015.9
20260510164301 28 181 1.6 3.2 0.00 0.00 0.00 61 1016.0
20260510163801 28 278 1.6 1.6 0.00 0.00 0.00 62 1015.8
20260510163257 28 245 0.0 1.6 0.00 0.00 0.00 58 1015.7
20260510162756 28 255 1.6 1.6 0.00 0.00 0.00 61 1015.8
20260510162254 27 255 0.0 1.6 0.00 0.00 0.00 65 1015.8
20260510161749 28 121 1.6 3.2 0.00 0.00 0.00 62 1015.9
20260510161245 27 256 0.0 0.0 0.00 0.00 0.00 64 1015.9
20260510160743 27 212 1.6 1.6 0.00 0.00 0.00 65 1016.1
20260510160238 28 242 3.2 3.2 0.00 0.00 0.00 62 1016.0
20260510155734 27 111 1.6 1.6 0.00 0.00 0.00 64 1015.9
20260510155230 27 241 1.6 1.6 0.00 0.00 0.00 68 1015.5
20260510154726 28 240 0.0 1.6 0.00 0.00 0.00 67 1015.6
20260510154222 28 212 0.0 0.0 0.00 0.00 0.00 67 1015.8
20260510153717 27 243 0.0 0.0 0.00 0.00 0.00 68 1015.8
20260510153214 27 136 0.0 0.0 0.00 0.00 0.00 67 1015.4
20260510152710 27 239 0.0 0.0 0.00 0.00 0.00 71 1015.8
20260510152206 27 325 0.0 1.6 0.00 0.00 0.00 70 1015.5
20260510151703 26 219 1.6 1.6 0.00 0.00 0.00 71 1015.8
20260510151202 26 218 0.0 0.0 0.00 0.00 0.00 75 1015.6
20260510150657 26 214 0.0 1.6 0.00 0.00 0.00 74 1015.5
20260510150152 26 252 1.6 3.2 0.00 0.00 0.00 73 1015.7
20260510145649 25 244 1.6 1.6 0.00 0.00 0.00 75 1015.5
20260510145146 25 241 1.6 1.6 0.00 0.00 0.00 77 1015.5
20260510144641 25 252 0.0 0.0 0.00 0.00 0.00 76 1015.8
20260510144138 25 246 0.0 0.0 0.00 0.00 0.00 79 1015.7
20260510143633 24 257 0.0 0.0 0.00 0.00 0.00 79 1015.6
20260510143131 23 258 0.0 0.0 0.00 0.00 0.00 80 1015.6
20260510142627 23 258 0.0 0.0 0.00 0.00 0.00 79 1015.7
20260510142124 24 258 0.0 0.0 0.00 0.00 0.00 78 1015.8
20260510141620 24 259 0.0 0.0 0.00 0.00 0.00 79 1015.8
20260510141119 24 262 0.0 0.0 0.00 0.00 0.00 78 1015.8
20260510140615 23 253 0.0 0.0 0.00 0.00 0.00 79 1015.4
20260510140114 23 253 0.0 0.0 0.00 0.00 0.00 82 1015.4
20260510135610 23 253 0.0 0.0 0.00 0.00 0.00 83 1015.3
20260510135106 23 253 0.0 0.0 0.00 0.00 0.00 82 1015.4
20260510134603 22 253 0.0 0.0 0.00 0.00 0.00 84 1015.3
20260510134100 22 253 0.0 0.0 0.00 0.00 0.00 85 1015.2
20260510133556 21 253 0.0 0.0 0.00 0.00 0.00 86 1015.2
20260510133052 21 254 0.0 0.0 0.00 0.00 0.00 88 1015.1
20260510132549 21 253 0.0 0.0 0.00 0.00 0.00 87 1015.4
20260510132046 20 288 0.0 0.0 0.00 0.00 0.00 89 1015.5
20260510131543 20 288 0.0 0.0 0.00 0.00 0.00 90 1015.5
20260510131041 20 288 0.0 0.0 0.00 0.00 0.00 90 1015.5
20260510130537 20 262 0.0 0.0 0.00 0.00 0.00 89 1015.5
20260510130034 20 262 0.0 0.0 0.00 0.00 0.00 90 1015.4
20260510125531 20 262 0.0 0.0 0.00 0.00 0.00 90 1015.4
20260510125027 20 262 0.0 0.0 0.00 0.00 0.00 91 1015.2
20260510124524 19 262 0.0 0.0 0.00 0.00 0.00 92 1015.4
20260510124021 19 262 0.0 0.0 0.00 0.00 0.00 92 1015.3
20260510123516 19 262 0.0 0.0 0.00 0.00 0.00 92 1015.2
20260510123012 18 262 0.0 0.0 0.00 0.00 0.00 93 1014.9
20260510122508 18 262 0.0 0.0 0.00 0.00 0.00 93 1015.1
20260510122004 18 262 0.0 0.0 0.00 0.00 0.00 94 1014.7
20260510121501 18 262 0.0 0.0 0.00 0.00 0.00 94 1014.8
20260510120958 18 262 0.0 0.0 0.00 0.00 0.00 94 1015.0
20260510120456 18 262 0.0 0.0 0.00 0.00 0.00 94 1014.8
20260510115951 17 262 1.6 1.6 0.00 0.00 0.00 94 1014.8
20260510115449 17 266 1.6 1.6 0.00 0.00 0.00 94 1014.8
20260510114944 17 262 1.6 1.6 0.00 0.00 0.00 94 1014.7
20260510114442 17 262 1.6 1.6 0.00 0.00 0.00 94 1014.6
20260510113937 17 260 0.0 0.0 0.00 0.00 0.00 94 1014.4
20260510113432 17 266 0.0 0.0 0.00 0.00 0.00 94 1014.4
20260510112931 17 269 0.0 0.0 0.00 0.00 0.00 94 1014.3
20260510112428 17 266 0.0 0.0 0.00 0.00 0.00 94 1014.2
20260510111923 17 268 0.0 0.0 0.00 0.00 0.00 95 1014.2
20260510111420 17 266 0.0 0.0 0.00 0.00 0.00 95 1013.9
20260510110916 17 266 0.0 0.0 0.00 0.00 0.00 96 1014.1
20260510110412 17 269 0.0 0.0 0.00 0.00 0.00 95 1013.9
20260510105909 17 278 0.0 0.0 0.00 0.00 0.00 95 1013.9
20260510105408 17 278 0.0 0.0 0.00 0.00 0.00 96 1013.7
20260510104904 16 279 0.0 0.0 0.00 0.00 0.00 96 1013.4
20260510104401 16 279 0.0 0.0 0.00 0.00 0.00 96 1013.5
20260510103858 16 279 0.0 0.0 0.00 0.00 0.00 97 1013.4
20260510103355 16 279 0.0 0.0 0.00 0.00 0.00 97 1013.4
20260510102850 16 282 0.0 0.0 0.00 0.00 0.00 97 1013.2
20260510102346 15 285 0.0 0.0 0.00 0.00 0.00 98 1013.3
20260510101844 15 300 0.0 0.0 0.00 0.00 0.00 97 1013.4
20260510101342 15 300 0.0 0.0 0.00 0.00 0.00 97 1013.2
20260510100838 15 300 0.0 0.0 0.00 0.00 0.00 96 1013.1
20260510100336 15 300 0.0 0.0 0.00 0.00 0.00 96 1013.1
20260510095832 14 285 0.0 0.0 0.00 0.00 0.00 95 1013.1
20260510095327 14 296 0.0 0.0 0.00 0.00 0.00 95 1013.0
20260510094826 14 296 0.0 0.0 0.00 0.00 0.00 95 1012.8
20260510094321 14 296 0.0 0.0 0.00 0.00 0.00 95 1013.1
20260510093818 14 296 0.0 0.0 0.00 0.00 0.00 94 1013.0
20260510093314 15 296 0.0 0.0 0.00 0.00 0.00 94 1012.9
20260510092811 14 296 0.0 0.0 0.00 0.00 0.00 94 1012.8
20260510092307 14 296 0.0 0.0 0.00 0.00 0.00 94 1013.0
20260510091802 14 296 0.0 0.0 0.00 0.00 0.00 93 1012.9
20260510091300 14 296 0.0 0.0 0.00 0.00 0.00 93 1012.6
20260510090756 14 314 0.0 0.0 0.00 0.00 0.00 92 1012.9
20260510090253 14 314 0.0 0.0 0.00 0.00 0.00 92 1012.8
20260510085749 14 314 0.0 0.0 0.00 0.00 0.00 92 1012.5
20260510085243 13 317 0.0 0.0 0.00 0.00 0.00 93 1012.6
20260510084739 13 282 0.0 0.0 0.00 0.00 0.00 93 1012.7
20260510084237 13 282 0.0 0.0 0.00 0.00 0.00 93 1012.8
20260510083733 13 282 0.0 0.0 0.00 0.00 0.00 93 1012.6
20260510083230 13 282 0.0 0.0 0.00 0.00 0.00 92 1012.8
20260510082726 13 282 0.0 0.0 0.00 0.00 0.00 92 1012.6
20260510082223 13 282 0.0 0.0 0.00 0.00 0.00 92 1012.5
20260510081722 13 282 0.0 0.0 0.00 0.00 0.00 91 1012.6
20260510081219 13 282 0.0 0.0 0.00 0.00 0.00 91 1012.3
20260510080719 13 282 0.0 0.0 0.00 0.00 0.00 91 1012.6
20260510080215 13 282 0.0 0.0 0.00 0.00 0.00 91 1012.3
20260510075712 13 282 0.0 0.0 0.00 0.00 0.00 91 1012.5
20260510075209 13 282 0.0 0.0 0.00 0.00 0.00 90 1012.6
20260510074706 13 282 0.0 0.0 0.00 0.00 0.00 89 1012.3
20260510074202 13 282 0.0 0.0 0.00 0.00 0.00 89 1012.3
20260510073659 13 282 0.0 0.0 0.00 0.00 0.00 88 1012.3
20260510073155 13 282 0.0 0.0 0.00 0.00 0.00 87 1012.3
20260510072651 13 282 0.0 0.0 0.00 0.00 0.00 88 1012.7
20260510072148 14 282 0.0 0.0 0.00 0.00 0.00 86 1012.5
20260510071644 14 282 0.0 0.0 0.00 0.00 0.00 86 1012.6
20260510071141 14 282 0.0 0.0 0.00 0.00 0.00 87 1012.4
20260510070639 14 282 0.0 0.0 0.00 0.00 0.00 85 1012.5
20260510070136 15 282 0.0 0.0 0.00 0.00 0.00 87 1012.4
20260510065631 15 255 0.0 0.0 0.00 0.00 0.00 87 1012.5
20260510065128 15 311 0.0 0.0 0.00 0.00 0.00 87 1012.4
20260510064624 15 359 0.0 0.0 0.00 0.00 0.00 83 1012.5
20260510064121 15 306 0.0 0.0 0.00 0.00 0.00 80 1012.5
20260510063618 15 302 0.0 0.0 0.00 0.00 0.00 83 1012.3
20260510063115 15 302 0.0 0.0 0.00 0.00 0.00 85 1012.5
20260510062610 15 302 0.0 0.0 0.00 0.00 0.00 82 1012.4
20260510062106 15 302 0.0 0.0 0.00 0.00 0.00 81 1012.2
20260510061603 15 302 0.0 0.0 0.00 0.00 0.00 84 1012.2
20260510061100 15 301 0.0 0.0 0.00 0.00 0.00 80 1012.0
20260510060556 16 295 0.0 0.0 0.00 0.00 0.00 81 1011.8
20260510060053 16 294 0.0 0.0 0.00 0.00 0.00 76 1011.9
20260510055548 16 294 0.0 0.0 0.00 0.00 0.00 77 1012.0
20260510055047 15 294 0.0 0.0 0.00 0.00 0.00 78 1012.2
20260510054542 15 294 0.0 0.0 0.00 0.00 0.00 78 1011.8
20260510054037 15 294 0.0 0.0 0.00 0.00 0.00 79 1011.9
20260510053532 15 294 0.0 0.0 0.00 0.00 0.00 80 1012.0
20260510053029 15 294 0.0 0.0 0.00 0.00 0.00 84 1011.8
20260510052525 15 294 0.0 0.0 0.00 0.00 0.00 87 1012.2
20260510052021 15 294 0.0 0.0 0.00 0.00 0.00 87 1011.9
20260510051517 15 294 0.0 0.0 0.00 0.00 0.00 85 1012.1
20260510051014 15 295 0.0 0.0 0.00 0.00 0.00 81 1012.0
20260510050511 15 294 0.0 0.0 0.00 0.00 0.00 83 1012.0
20260510050008 15 294 0.0 0.0 0.00 0.00 0.00 83 1012.1
20260510045506 15 294 0.0 0.0 0.00 0.00 0.00 83 1012.0
20260510045001 15 294 0.0 0.0 0.00 0.00 0.00 83 1011.9
20260510044459 15 294 0.0 0.0 0.00 0.00 0.00 83 1011.8
20260510043955 15 294 0.0 0.0 0.00 0.00 0.00 83 1011.8
20260510043451 15 294 0.0 0.0 0.00 0.00 0.00 83 1011.7
20260510042950 15 282 0.0 0.0 0.00 0.00 0.00 85 1011.8
20260510042445 15 256 0.0 0.0 0.00 0.00 0.00 82 1011.9
20260510041941 15 256 0.0 0.0 0.00 0.00 0.00 82 1011.7
20260510041438 15 256 0.0 0.0 0.00 0.00 0.00 82 1012.0
20260510040936 15 256 0.0 0.0 0.00 0.00 0.00 83 1011.9
20260510040432 15 256 0.0 0.0 0.00 0.00 0.00 82 1011.9
20260510035928 15 256 0.0 0.0 0.00 0.00 0.00 81 1011.8
20260510035425 15 254 0.0 0.0 0.00 0.00 0.00 81 1012.0
20260510034925 15 290 0.0 0.0 0.00 0.00 0.00 82 1011.9
20260510034424 15 290 0.0 0.0 0.00 0.00 0.00 80 1012.0
20260510033919 15 290 0.0 0.0 0.00 0.00 0.00 80 1011.8
20260510033416 15 290 0.0 0.0 0.00 0.00 0.00 77 1012.1
20260510032913 16 290 0.0 0.0 0.00 0.00 0.00 77 1011.9
20260510032409 16 290 0.0 0.0 0.00 0.00 0.00 78 1012.1
20260510031905 16 290 0.0 0.0 0.00 0.00 0.00 77 1012.1
20260510031401 16 290 0.0 0.0 0.00 0.00 0.00 78 1012.0
20260510030900 16 290 0.0 0.0 0.00 0.00 0.00 73 1012.0
20260510030357 16 290 0.0 0.0 0.00 0.00 0.00 74 1011.9
20260510025855 16 290 0.0 0.0 0.00 0.00 0.00 77 1012.2
20260510025352 16 290 0.0 0.0 0.00 0.00 0.00 74 1011.8
20260510024849 16 290 0.0 0.0 0.00 0.00 0.00 77 1012.0
20260510024346 16 290 0.0 0.0 0.00 0.00 0.00 75 1011.9
20260510023842 17 290 0.0 0.0 0.00 0.00 0.00 75 1011.7
20260510023338 17 290 0.0 0.0 0.00 0.00 0.00 74 1011.9
20260510022836 17 290 0.0 0.0 0.00 0.00 0.00 72 1011.8
20260510022335 17 290 0.0 0.0 0.00 0.00 0.00 73 1011.7
20260510021834 17 290 0.0 0.0 0.00 0.00 0.00 74 1011.5
20260510021332 17 290 0.0 0.0 0.00 0.00 0.00 71 1011.5
20260510020828 17 290 0.0 0.0 0.00 0.00 0.00 71 1011.5
20260510020328 17 290 0.0 0.0 0.00 0.00 0.00 70 1011.5
20260510015824 17 290 0.0 0.0 0.00 0.00 0.00 71 1011.3
20260510015321 18 290 0.0 0.0 0.00 0.00 0.00 77 1011.2
20260510014816 18 290 0.0 0.0 0.00 0.00 0.00 71 1011.2
20260510014313 18 290 0.0 0.0 0.00 0.00 0.00 68 1011.0
20260510013809 18 290 0.0 0.0 0.00 0.00 0.00 69 1011.1
20260510013306 18 290 0.0 0.0 0.00 0.00 0.00 72 1011.0
20260510012801 18 290 0.0 0.0 0.00 0.00 0.00 69 1011.0
20260510012301 19 290 0.0 0.0 0.00 0.00 0.00 70 1010.8
20260510011800 19 290 0.0 0.0 0.00 0.00 0.00 67 1011.0
20260510011256 19 290 0.0 0.0 0.00 0.00 0.00 65 1010.8
20260510010753 20 290 0.0 0.0 0.00 0.00 0.00 66 1010.6
20260510010250 20 290 0.0 0.0 0.00 0.00 0.00 65 1010.7
20260510005747 20 290 0.0 0.0 0.00 0.00 0.00 65 1010.3
20260510005243 20 290 0.0 0.0 0.00 0.00 0.00 62 1010.4
20260510004741 20 290 0.0 0.0 0.00 0.00 0.00 60 1010.6
20260510004239 21 290 0.0 0.0 0.00 0.00 0.00 59 1010.4
20260510003736 21 290 0.0 0.0 0.00 0.00 0.00 58 1010.4
20260510003232 21 290 0.0 0.0 0.00 0.00 0.00 55 1010.1
20260510002731 21 290 0.0 0.0 0.00 0.00 0.00 54 1010.1
20260510002229 22 290 0.0 0.0 0.00 0.00 0.00 55 1010.0
20260510001725 22 290 0.0 0.0 0.00 0.00 0.00 54 1010.1
20260510001224 22 290 0.0 0.0 0.00 0.00 0.00 55 1010.0
20260510000719 22 290 0.0 0.0 0.00 0.00 0.00 54 1009.8
20260510000218 22 290 0.0 0.0 0.00 0.00 0.00 54 1010.0
20260509235713 23 290 0.0 0.0 0.00 0.00 0.00 51 1009.6
20260509235210 23 290 0.0 0.0 0.00 0.00 0.00 50 1010.2
20260509234706 23 290 0.0 0.0 0.00 0.00 0.00 48 1009.7
20260509234203 23 290 0.0 0.0 0.00 0.00 0.00 47 1009.6
20260509233701 23 290 0.0 0.0 0.00 0.00 0.00 45 1009.8
20260509233159 23 290 0.0 0.0 0.00 0.00 0.00 44 1009.6
20260509232655 24 290 0.0 0.0 0.00 0.00 0.00 43 1009.7
20260509232151 24 290 0.0 0.0 0.00 0.00 0.00 41 1009.7
20260509231648 24 290 0.0 0.0 0.00 0.00 0.00 40 1009.7
20260509231146 24 290 0.0 0.0 0.00 0.00 0.00 41 1009.5
20260509230642 24 290 0.0 0.0 0.00 0.00 0.00 41 1009.6
20260509230140 25 290 0.0 0.0 0.00 0.00 0.00 42 1009.6
20260509225635 25 290 0.0 0.0 0.00 0.00 0.00 40 1009.2
20260509225131 24 311 0.0 0.0 0.00 0.00 0.00 42 1009.6
20260509224626 25 311 0.0 0.0 0.00 0.00 0.00 42 1009.4
20260509224124 25 311 0.0 0.0 0.00 0.00 0.00 43 1009.2
20260509223620 25 311 0.0 0.0 0.00 0.00 0.00 41 1009.5
20260509223118 25 311 0.0 0.0 0.00 0.00 0.00 40 1009.5
20260509222614 25 311 0.0 0.0 0.00 0.00 0.00 46 1009.4
20260509222110 25 312 0.0 0.0 0.00 0.00 0.00 47 1009.5
20260509221606 25 311 1.6 1.6 0.00 0.00 0.00 48 1009.7
20260509221102 25 312 0.0 0.0 0.00 0.00 0.00 45 1009.7
20260509220558 25 269 0.0 0.0 0.00 0.00 0.00 44 1009.5
20260509220054 25 250 0.0 0.0 0.00 0.00 0.00 44 1009.5
20260509215550 25 250 0.0 0.0 0.00 0.00 0.00 45 1009.6
20260509215048 26 229 1.6 3.2 0.00 0.00 0.00 42 1009.6
20260509214544 26 336 0.0 0.0 0.00 0.00 0.00 38 1009.6
20260509214041 26 255 0.0 0.0 0.00 0.00 0.00 38 1009.7
20260509213537 26 297 0.0 0.0 0.00 0.00 0.00 36 1009.5
20260509213034 26 267 0.0 0.0 0.00 0.00 0.00 38 1009.9
20260509212531 26 267 0.0 0.0 0.00 0.00 0.00 38 1009.6
20260509212029 26 277 0.0 1.6 0.00 0.00 0.00 40 1009.8
20260509211524 26 257 0.0 0.0 0.00 0.00 0.00 38 1009.9
20260509211021 26 255 1.6 1.6 0.00 0.00 0.00 39 1009.7
20260509210518 26 247 0.0 1.6 0.00 0.00 0.00 37 1009.9
20260509210014 26 246 0.0 0.0 0.00 0.00 0.00 36 1009.9
20260509205509 26 237 0.0 0.0 0.00 0.00 0.00 40 1009.6
20260509205004 27 47 0.0 0.0 0.00 0.00 0.00 42 1009.9
20260509204500 27 48 0.0 0.0 0.00 0.00 0.00 39 1009.6
20260509203957 26 75 0.0 1.6 0.00 0.00 0.00 38 1010.0